Location: Dammartin
(48.9032°N, 1.6195°E)
Time: 15:40:04
(UTC+00:00)

Cosmos 468 Rocket - Pass Details

Date: 03 February 2023
Orbit: 744 x 778 km, 74.0° (Epoch: 30 March)

Event Time Altitude Azimuth Distance (km) Brightness Sun altitude
Rises 17:59:12 0° 337° (NNW) 3,224 7.4 -11.0°
Reaches altitude 10° 18:01:36 10° 340° (NNW) 2,289 6.6 -11.4°
Maximum altitude 18:06:46 72° 65° (ENE) 790 3.9 -12.2°
Drops below altitude 10° 18:11:53 10° 150° (SSE) 2,257 6.2 -13.0°
Sets 18:14:14 0° 153° (SSE) 3,175 7.0 -13.4°
